Wallops Island, VA

2:34 AM EDT on August 22, 2017 (GMT -0400)
Wallops Flight Facility

Weather History for KWAL - November, 2011

Change the Weather History Date:

Thursday, November 10, 2011

  Actual Average Record
Temperature  
Mean Temperature 57 °F 52 °F  
Max Temperature 67 °F 61 °F 73 °F (1999)
Min Temperature 46 °F 43 °F 28 °F (1995)
Degree Days  
Heating Degree Days 8    
Month to date heating degree days 138  
Since 1 July heating degree days 342  
Cooling Degree Days 0    
Month to date cooling degree days 0  
Year to date cooling degree days 1685  
Growing Degree Days 6 (Base 50)    
Moisture  
Dew Point 54 °F    
Average Humidity 86    
Maximum Humidity 100    
Minimum Humidity 71    
Precipitation  
Precipitation 0.01 in 0.09 in 1.33 in (2015)
Month to date precipitation 0.27 0.97  
Year to date precipitation 33.08 35.51  
Sea Level Pressure  
Sea Level Pressure 29.83 in    
Wind  
Wind Speed 8 mph (North)    
Max Wind Speed 20 mph    
Max Gust Speed 29 mph    
Visibility 6 miles    
Events Fog , Rain    
T = Trace of Precipitation, MM = Missing Value Source: NWS Daily Summary

Daily Weather History Graph

Daily Weather History Graph

Search for Another Location

Airport or City:

Trip Planner

Search our weather history database for the weather conditions in past years. The results will help you decide how hot, cold, wet, or windy it might be!

Date:

Astronomy

Nov. 10, 2011 Rise Set
Actual Time 6:36 AM EST 4:54 PM EST
Civil Twilight 6:08 AM EST 5:22 PM EST
Nautical Twilight 5:37 AM EST 5:53 PM EST
Astronomical Twilight 5:06 AM EST 6:24 PM EST
Moon 4:41 PM EST (11/10) 6:26 AM EST (11/10)
Length of Visible Light 11h 13m
Length of Day
10h 17m
Full, 100% of the Moon is Illuminated
Nov 10
Full
Nov 10
Full
Nov 18
Last Quarter
Nov 25
New
Dec 2
First Quarter

Hourly Weather History & Observations

Time (EST) Temp. Windchill Dew Point Humidity Pressure Visibility Wind Dir Wind Speed Gust Speed Precip Events Conditions
12:54 AM 55.0 °F - 54.0 °F 96% 29.96 in 10.0 mi North 4.6 mph - N/A   Overcast
1:54 AM 57.0 °F - 55.0 °F 93% 29.95 in 10.0 mi NE 3.5 mph - N/A   Overcast
2:54 AM 55.9 °F - 54.0 °F 93% 29.93 in 9.0 mi NW 5.8 mph - N/A   Overcast
3:54 AM 55.0 °F - 53.1 °F 93% 29.90 in 7.0 mi North 3.5 mph - N/A   Mostly Cloudy
4:15 AM 53.6 °F - 51.8 °F 94% 29.90 in 2.5 mi NNW 4.6 mph - N/A   Scattered Clouds
4:27 AM 53.6 °F - 53.6 °F 100% 29.90 in 4.0 mi NW 4.6 mph - N/A   Mostly Cloudy
4:34 AM 53.6 °F - 53.6 °F 100% 29.89 in 1.0 mi Calm Calm - N/A   Mist
4:38 AM 53.6 °F - 53.6 °F 100% 29.88 in 0.8 mi NE 3.5 mph - N/A   Mist
4:46 AM 53.6 °F - 53.6 °F 100% 29.89 in 0.5 mi North 3.5 mph - N/A Fog Fog
4:54 AM 53.1 °F - 52.0 °F 96% 29.88 in 0.2 mi NNW 4.6 mph - N/A Fog Fog
5:25 AM 51.8 °F - 51.8 °F 100% 29.89 in 1.0 mi North 3.5 mph - N/A   Mist
5:38 AM 51.8 °F - 51.8 °F 100% 29.89 in 0.5 mi Calm Calm - N/A Fog Fog
5:54 AM 52.0 °F - 52.0 °F 100% 29.88 in 0.2 mi NNW 5.8 mph - N/A Fog Fog
6:26 AM 53.6 °F - 51.8 °F 94% 29.89 in 0.8 mi North 3.5 mph - N/A   Overcast
6:30 AM 53.6 °F - 51.8 °F 94% 29.89 in 1.2 mi North 4.6 mph - N/A   Overcast
6:34 AM 53.6 °F - 53.6 °F 100% 29.89 in 2.5 mi North 3.5 mph - N/A   Overcast
6:41 AM 53.6 °F - 53.6 °F 100% 29.89 in 4.0 mi North 5.8 mph - N/A   Mostly Cloudy
6:54 AM 55.0 °F - 54.0 °F 96% 29.88 in 3.0 mi North 5.8 mph - N/A   Scattered Clouds
7:08 AM 53.6 °F - 53.6 °F 100% 29.88 in 3.0 mi NNW 3.5 mph - N/A   Partly Cloudy
7:54 AM 57.9 °F - 55.9 °F 93% 29.87 in 5.0 mi NNE 3.5 mph - N/A   Scattered Clouds
8:01 AM 57.2 °F - 55.4 °F 94% 29.88 in 5.0 mi North 4.6 mph - N/A   Mostly Cloudy
8:10 AM 59.0 °F - 57.2 °F 94% 29.88 in 5.0 mi North 4.6 mph - N/A   Overcast
8:27 AM 59.0 °F - 57.2 °F 94% 29.88 in 0.5 mi North 4.6 mph - N/A Fog Fog
8:54 AM 60.1 °F - 59.0 °F 96% 29.86 in 0.2 mi Calm Calm - N/A Fog Fog
9:54 AM 61.0 °F - 60.1 °F 97% 29.85 in 0.2 mi East 8.1 mph - N/A Fog Fog
10:54 AM 60.8 °F - 60.8 °F 100% 29.84 in 1.2 mi ENE 6.9 mph - N/A   Overcast
10:58 AM 60.8 °F - 60.8 °F 100% 29.84 in 2.5 mi ENE 5.8 mph - N/A   Overcast
11:06 AM 60.8 °F - 60.8 °F 100% 29.84 in 6.0 mi ENE 4.6 mph - N/A   Overcast
11:21 AM 60.8 °F - 60.8 °F 100% 29.83 in 2.0 mi Calm Calm - N/A   Overcast
11:29 AM 60.8 °F - 60.8 °F 100% 29.82 in 1.8 mi East 3.5 mph - N/A   Overcast
11:38 AM 60.8 °F - 60.8 °F 100% 29.82 in 2.0 mi East 3.5 mph - N/A   Overcast
11:44 AM 60.8 °F - 60.8 °F 100% 29.81 in 3.0 mi East 3.5 mph - N/A   Overcast
11:54 AM 62.1 °F - 61.0 °F 96% 29.80 in 3.0 mi Calm Calm - N/A   Overcast
12:10 PM 64.4 °F - 60.8 °F 88% 29.80 in 9.0 mi NNE 4.6 mph - N/A   Overcast
12:23 PM 64.4 °F - 60.8 °F 88% 29.79 in 9.0 mi North 3.5 mph - N/A   Overcast
12:30 PM 66.2 °F - 62.6 °F 88% 29.78 in 9.0 mi North 3.5 mph - N/A   Overcast
12:37 PM 66.2 °F - 60.8 °F 83% 29.78 in 10.0 mi NNW 3.5 mph - N/A   Overcast
12:54 PM 66.0 °F - 61.0 °F 84% 29.76 in 10.0 mi North 4.6 mph - N/A   Overcast
1:08 PM 66.2 °F - 60.8 °F 83% 29.76 in 10.0 mi NNW 4.6 mph - N/A   Overcast
1:20 PM 66.2 °F - 60.8 °F 83% 29.76 in 10.0 mi North 4.6 mph - N/A   Overcast
1:54 PM 66.0 °F - 57.9 °F 75% 29.73 in 10.0 mi NW 10.4 mph - N/A   Overcast
2:12 PM 66.2 °F - 57.2 °F 73% 29.74 in 10.0 mi NW 10.4 mph - N/A   Overcast
2:32 PM 64.4 °F - 57.2 °F 77% 29.74 in 10.0 mi NNW 13.8 mph - N/A   Overcast
2:54 PM 62.1 °F - 57.0 °F 84% 29.73 in 10.0 mi NNW 15.0 mph 18.4 mph N/A   Overcast
3:54 PM 57.9 °F - 53.1 °F 84% 29.73 in 7.0 mi North 12.7 mph - N/A   Overcast
4:30 PM 57.2 °F - 51.8 °F 82% 29.74 in 7.0 mi NNW 17.3 mph - N/A   Overcast
4:42 PM 57.2 °F - 48.2 °F 72% 29.74 in 10.0 mi North 15.0 mph 24.2 mph N/A   Overcast
4:54 PM 55.9 °F - 48.0 °F 75% 29.73 in 10.0 mi North 11.5 mph - N/A   Overcast
5:54 PM 54.0 °F - 45.0 °F 72% 29.75 in 10.0 mi NNW 12.7 mph 21.9 mph N/A   Overcast
6:54 PM 52.0 °F - 44.1 °F 74% 29.76 in 10.0 mi NNW 13.8 mph 21.9 mph N/A   Overcast
7:54 PM 50.0 °F - 43.0 °F 77% 29.75 in 10.0 mi North 10.4 mph - N/A   Overcast
8:33 PM 48.2 °F - 41.0 °F 76% 29.76 in 10.0 mi North 16.1 mph 28.8 mph N/A   Overcast
8:54 PM 46.9 °F - 41.0 °F 80% 29.76 in 9.0 mi North 13.8 mph 21.9 mph 0.00 in Rain Light Rain
9:54 PM 46.0 °F 41.4 °F 43.0 °F 89% 29.76 in 9.0 mi NNW 9.2 mph - 0.01 in Rain Light Rain
10:54 PM 46.9 °F - 43.0 °F 86% 29.74 in 10.0 mi NNW 12.7 mph - 0.00 in   Overcast
11:54 PM 46.9 °F - 36.0 °F 66% 29.75 in 10.0 mi NNW 11.5 mph 19.6 mph N/A   Mostly Cloudy